Le nostre stazioni meteo in Italia

Pubblicità
Il mio iltempo24.it
Vignola, Italia (16137): Temperatura & dewpoint: 09.09.2019 21:00:00 - 15.09.2019 21:00:00 (CEST)Vignola, Italia (16137): velocità del vento: 09.09.2019 21:00:00 - 15.09.2019 21:00:00 (CEST)Vignola, Italia (16137): direzione del vento: 09.09.2019 21:00:00 - 15.09.2019 21:00:00 (CEST)Vignola, Italia (16137): reduced air pressure: 09.09.2019 21:00:00 - 15.09.2019 21:00:00 (CEST)Vignola, Italia (16137): precipitazioni: 09.09.2019 21:00:00 - 15.09.2019 21:00:00 (CEST)
Data & Tempo tt [°C] td [°C] ff [km/h] ff [kn] dd ppp [hPa] rr [mm]
15.09.2019 21:00:00 - - - - - - -
15.09.2019 20:00:00 20,2 15,4 6 3 SO 1021,4 0,0
15.09.2019 19:00:00 23,8 16,1 0 0 ENE 1021,4 0,0
15.09.2019 18:00:00 27,7 12,1 4 2 ENE 1021,7 0,0
15.09.2019 17:00:00 28,7 11,7 8 4 NNE 1021,8 0,0
15.09.2019 16:00:00 28,8 12,2 10 5 NE 1022,3 0,0
15.09.2019 15:00:00 28,4 12,3 7 4 E 1023,0 0,0
15.09.2019 14:00:00 27,5 11,9 6 3 NE 1024,0 0,0
15.09.2019 13:00:00 27,0 12,6 8 4 N 1024,5 0,0
15.09.2019 12:00:00 25,7 12,5 2 1 NE 1025,6 0,0
15.09.2019 11:00:00 24,3 12,9 3 2 ESE 1025,9 0,0
15.09.2019 10:00:00 22,4 12,6 6 3 S 1026,2 0,0
15.09.2019 09:00:00 19,0 14,0 2 1 S 1026,6 0,0
15.09.2019 08:00:00 15,5 13,7 3 2 ONO 1026,3 0,0
15.09.2019 07:00:00 13,9 11,8 4 2 SSE 1026,2 0,0
15.09.2019 06:00:00 14,8 12,7 5 3 SO 1025,9 0,0
15.09.2019 05:00:00 14,1 12,1 1 1 S 1026,0 0,0
15.09.2019 04:00:00 14,7 12,0 3 1 S 1026,0 0,0
15.09.2019 03:00:00 17,5 12,6 3 2 OSO 1026,4 0,0
15.09.2019 02:00:00 18,0 12,7 6 4 SSO 1026,2 0,0
15.09.2019 01:00:00 18,3 13,0 - - - 1026,4 0,0
15.09.2019 00:00:00 18,6 13,2 7 4 SSO 1026,6 0,0
14.09.2019 23:00:00 16,1 13,9 8 5 S 1027,1 0,0
14.09.2019 22:00:00 17,7 14,0 3 1 SO 1027,3 0,0
14.09.2019 21:00:00 18,6 14,5 1 1 E 1026,8 0,0
14.09.2019 20:00:00 24,1 12,7 6 3 ESE 1026,0 0,0
14.09.2019 19:00:00 26,4 13,5 8 4 ENE 1025,5 0,0
14.09.2019 18:00:00 27,8 12,2 5 3 ENE 1025,5 0,0
14.09.2019 17:00:00 28,7 11,3 7 4 E 1025,7 0,0
14.09.2019 16:00:00 28,8 11,8 8 4 ENE 1026,5 0,0
14.09.2019 15:00:00 28,6 11,6 7 4 NE 1027,0 0,0
14.09.2019 14:00:00 27,9 11,4 9 5 NNE 1027,7 0,0
14.09.2019 13:00:00 26,9 12,2 5 3 NE 1028,4 0,0
14.09.2019 12:00:00 26,1 13,2 7 4 N 1028,9 0,0
14.09.2019 11:00:00 24,1 13,3 4 2 N 1029,3 0,0
14.09.2019 10:00:00 22,5 13,6 4 2 N 1029,3 0,0
14.09.2019 09:00:00 20,1 13,1 1 1 NE 1029,2 0,0
14.09.2019 08:00:00 16,1 13,2 1 1 O 1028,8 0,0
14.09.2019 07:00:00 14,0 11,3 1 1 O 1028,3 0,0
14.09.2019 06:00:00 13,5 11,4 6 4 SSO 1028,1 0,0
14.09.2019 05:00:00 14,6 11,4 3 1 OSO 1028,1 0,0
14.09.2019 04:00:00 16,7 11,6 7 4 SSO 1028,0 0,0
14.09.2019 03:00:00 17,0 11,9 5 3 SO 1028,3 0,0
14.09.2019 02:00:00 15,2 12,5 8 5 SSO 1028,5 0,0
14.09.2019 01:00:00 15,8 12,5 7 4 S 1028,7 0,0
14.09.2019 00:00:00 18,1 12,8 6 3 SO 1028,6 0,0
13.09.2019 23:00:00 17,6 13,1 7 4 SO 1028,5 0,0
13.09.2019 22:00:00 16,5 13,4 6 3 SSO 1028,2 0,0
13.09.2019 21:00:00 18,4 13,9 5 3 SSO 1028,1 0,0
13.09.2019 20:00:00 19,7 14,7 2 1 ENE 1027,7 0,0
13.09.2019 19:00:00 26,4 12,5 5 3 ENE 1027,3 0,0
13.09.2019 18:00:00 28,0 10,7 10 5 NE 1027,3 0,0
13.09.2019 17:00:00 28,6 10,8 10 5 E 1027,4 0,0
13.09.2019 16:00:00 28,6 10,3 5 3 NE 1028,0 0,0
13.09.2019 15:00:00 28,5 11,1 6 3 SE 1028,5 0,0
13.09.2019 14:00:00 28,0 11,1 9 5 ENE 1029,0 0,0
13.09.2019 13:00:00 27,2 10,8 6 4 NE 1029,5 0,0
13.09.2019 12:00:00 26,4 10,9 7 4 NE 1030,2 0,0
13.09.2019 11:00:00 24,8 11,4 4 2 NNE 1030,8 0,0
13.09.2019 10:00:00 23,0 10,8 4 2 N 1031,0 0,0
13.09.2019 09:00:00 20,9 11,0 3 1 E 1030,6 0,0
13.09.2019 08:00:00 15,4 13,6 0 0 N 1030,7 0,0
13.09.2019 07:00:00 12,4 10,3 0 0 ONO 1030,5 0,0
13.09.2019 06:00:00 14,0 10,2 1 1 ONO 1030,0 0,0
13.09.2019 05:00:00 18,2 9,5 - - - 1029,5 0,0
13.09.2019 04:00:00 18,8 9,8 10 5 SSO 1029,3 0,0
13.09.2019 03:00:00 18,7 10,3 8 5 SSO 1029,1 0,0
13.09.2019 02:00:00 19,2 10,5 11 6 SSO 1029,1 0,0
13.09.2019 01:00:00 19,5 10,8 14 7 SSO 1029,2 0,0
13.09.2019 00:00:00 18,7 11,3 9 5 SSO 1029,1 0,0
12.09.2019 23:00:00 15,7 12,3 7 4 S 1029,3 0,0
12.09.2019 22:00:00 16,3 12,5 5 3 S 1029,2 0,0
12.09.2019 21:00:00 17,5 13,4 5 3 SSO 1028,9 0,0
12.09.2019 20:00:00 18,9 13,7 5 3 SSO 1028,4 0,0
12.09.2019 19:00:00 25,8 10,8 4 2 ESE 1027,8 0,0
12.09.2019 18:00:00 27,5 10,2 7 4 ENE 1027,6 0,0
12.09.2019 17:00:00 27,8 10,5 6 3 ENE 1027,7 0,0
12.09.2019 16:00:00 27,8 10,5 9 5 NNE 1028,1 0,0
12.09.2019 15:00:00 27,3 10,5 10 6 NE 1028,4 0,0
12.09.2019 14:00:00 27,3 10,9 5 3 NE 1028,7 0,0
12.09.2019 13:00:00 26,6 11,9 6 3 NO 1028,9 0,0
12.09.2019 12:00:00 26,0 12,5 4 2 ENE 1028,8 0,0
12.09.2019 11:00:00 24,6 12,5 6 4 N 1028,7 0,0
12.09.2019 10:00:00 23,1 12,1 4 2 SSE 1028,4 0,0
12.09.2019 09:00:00 19,8 13,0 5 3 SSO 1027,9 0,0
12.09.2019 08:00:00 14,8 13,2 0 0 SO 1027,4 0,0
12.09.2019 07:00:00 12,5 10,7 5 3 SO 1026,8 0,0
12.09.2019 06:00:00 12,7 10,4 1 0 NO 1026,0 0,0
12.09.2019 05:00:00 14,2 11,0 4 2 OSO 1025,5 0,0
12.09.2019 04:00:00 16,8 11,5 9 5 SSO 1024,9 0,0
12.09.2019 03:00:00 17,1 11,6 11 6 SSO 1024,7 0,0
12.09.2019 02:00:00 16,9 11,6 9 5 SSO 1024,4 0,0
12.09.2019 01:00:00 14,7 12,0 9 5 SSO 1024,5 0,0
12.09.2019 00:00:00 14,2 11,9 - - - 1024,2 -
11.09.2019 23:00:00 14,9 12,4 4 2 S 1023,9 0,0
11.09.2019 22:00:00 15,3 12,6 4 2 SSO 1023,3 0,0
11.09.2019 21:00:00 16,5 12,8 - - - 1022,6 -
11.09.2019 20:00:00 18,1 13,8 1 1 NO 1021,8 0,0
11.09.2019 19:00:00 24,2 12,2 3 2 NNE 1021,1 0,0
11.09.2019 18:00:00 26,0 8,5 5 3 N 1020,9 0,0
11.09.2019 17:00:00 26,8 8,3 4 2 NNE 1020,7 0,0
11.09.2019 16:00:00 26,3 8,3 5 3 NNE 1020,8 0,0
11.09.2019 15:00:00 26,2 9,9 3 2 SSE 1021,0 0,0
11.09.2019 14:00:00 25,1 11,6 4 2 SSO 1021,5 0,0
11.09.2019 13:00:00 23,6 11,9 4 2 NO 1021,6 0,0
11.09.2019 12:00:00 23,3 13,8 7 4 NO 1021,9 0,0
11.09.2019 11:00:00 22,2 14,1 8 5 NO 1022,2 0,0
11.09.2019 10:00:00 20,9 13,8 9 5 NO 1021,7 0,0
11.09.2019 09:00:00 20,1 13,8 6 3 NO 1021,0 0,0
11.09.2019 08:00:00 17,9 14,8 1 0 SSO 1020,9 0,0
11.09.2019 07:00:00 14,5 12,9 5 3 SO 1020,9 0,0
11.09.2019 06:00:00 14,0 12,0 4 2 S 1020,6 0,0
11.09.2019 05:00:00 15,6 13,1 6 3 SO 1020,2 0,0
11.09.2019 04:00:00 17,2 14,1 4 2 O 1020,2 0,0
11.09.2019 03:00:00 17,2 14,5 6 4 O 1020,1 0,0
11.09.2019 02:00:00 17,2 15,0 6 3 ONO 1019,9 0,0
11.09.2019 01:00:00 16,1 14,5 3 2 O 1019,6 0,0
11.09.2019 00:00:00 15,5 13,7 1 1 O 1019,3 0,0
10.09.2019 23:00:00 15,0 13,0 3 2 OSO 1019,0 0,0
10.09.2019 22:00:00 15,8 13,6 4 2 ONO 1018,5 0,0
10.09.2019 21:00:00 16,7 13,4 1 1 NE 1018,1 0,0
10.09.2019 20:00:00 19,5 12,7 6 3 E 1017,2 0,0
10.09.2019 19:00:00 21,1 11,7 5 3 ENE 1016,2 0,0
10.09.2019 18:00:00 23,6 9,9 17 9 ENE 1015,6 0,0
10.09.2019 17:00:00 25,0 8,9 10 6 E 1015,4 0,0
10.09.2019 16:00:00 25,2 7,8 10 5 E 1015,3 0,0
10.09.2019 15:00:00 25,0 8,5 10 6 E 1015,7 0,0
10.09.2019 14:00:00 23,7 8,5 8 4 ENE 1016,0 0,0
10.09.2019 13:00:00 23,1 7,6 11 6 NNE 1016,2 0,0
10.09.2019 12:00:00 22,1 9,9 8 4 N 1016,3 0,0
10.09.2019 11:00:00 21,2 8,8 7 4 NNO 1016,6 0,0
10.09.2019 10:00:00 19,3 10,3 6 3 N 1016,6 0,0
10.09.2019 09:00:00 17,5 8,6 6 3 N 1016,4 0,0
10.09.2019 08:00:00 15,0 8,7 3 2 S 1016,0 0,0
10.09.2019 07:00:00 10,9 7,6 1 1 SSO 1016,2 0,0
10.09.2019 06:00:00 9,6 6,7 9 5 S 1015,7 0,0
10.09.2019 05:00:00 9,4 6,5 6 3 S 1015,6 0,0
10.09.2019 04:00:00 9,3 6,7 4 2 SSO 1015,6 0,0
10.09.2019 03:00:00 10,2 7,1 5 3 S 1015,7 0,0
10.09.2019 02:00:00 11,2 7,1 3 1 ESE 1015,7 0,0
10.09.2019 01:00:00 15,8 4,5 11 6 SSO 1015,2 0,0
10.09.2019 00:00:00 15,5 5,4 11 6 SO 1015,0 0,0
09.09.2019 23:00:00 16,4 7,1 9 5 SSO 1014,7 0,0
09.09.2019 22:00:00 15,9 7,6 11 6 SSO 1014,6 0,0
09.09.2019 21:00:00 13,6 10,0 7 4 SSO 1014,8 0,0

tt = Temperatura
td = dewpoint
ff = velocità del vento
dd = direzione del vento
ppp = reduced air pressure
rr = precipitazioni

Stazioni seguenti

WeatherPro
AMSI
MeteoEarth